Regional Weather Roundup
Issued by NWS Charleston, SC

Current Version | Previous Version | Graphics & Text | Print | Product List | Glossary On
Versions: 1 2 3 4 5 6 7 8 9 10 11 12 13 14 15 16 17 18 19 20 21 22 23 24 25 26 27 28 29 30 31 32 33 34 35 36 37 38 39 40 41 42 43 44 45 46 47 48 49 50
000
ASUS42 KCHS 181312
RWRCHS

REGIONAL WEATHER ROUNDUP
NATIONAL WEATHER SERVICE CHARLESTON SC
900 AM EDT FRI AUG 18 2017

NOTE: "FAIR" INDICATES FEW OR NO CLOUDS BELOW 12,000 FEET WITH NO
SIGNIFICANT WEATHER AND/OR OBSTRUCTIONS TO VISIBILITY.

NOT ALL STATIONS ARE QUALITY CONTROLLED. USE DATA WITH CAUTION...
ESPECIALLY DEWPOINT OBSERVATIONS.

SCZ027-030-031-034>040-042>050-181400-
...SOUTHEAST SOUTH CAROLINA...

CITY           SKY/WX    TMP DP  RH WIND       PRES   REMARKS
N CHARLESTON   MOSUNNY   84  76  76 W10       29.98R HX  93
WATERFRONT PRK   N/A     83  78  84 W6        29.82R HX  93
JOHNS ISLAND   FAIR      86  79  79 W8        29.98S HX  99
PINOPOLIS        N/A     81  79  94 W10       29.91R
MONCKS CORNER  FAIR      81  77  89 W5        29.98S
SUMMERVILLE    FAIR      81  77  89 CALM      30.00R
BEAUFORT MCAS  MOSUNNY   85  77  77 NW9       30.00R HX  95
BEAUFORT ARPT  FAIR      82  75  78 W8        29.99S HAZE
HILTON HEAD IS SUNNY     84  77  79 W3        30.00R HX  94
WALTERBORO     SUNNY     82  75  78 W7        30.01R
ALLENDALE      NOT AVBL

...SOUTHERN MIDLANDS AND PEE DEE...

CITY           SKY/WX    TMP DP  RH WIND       PRES   REMARKS
GEORGETOWN     FAIR      82  81  94 W8        29.99R HX  95
KINGSTREE      FAIR      82  77  83 W8        29.98R HX  91
ORANGEBURG     SUNNY     84  74  71 NW8       29.99S HX  91
BARNWELL       FAIR      84  77  79 VRB7      30.00S HX  94
AIKEN          FAIR      81  73  78 W6        30.04R
MANNING        FAIR      82  73  74 CALM      29.98S
COLUMBIA       MOSUNNY   85  74  69 W7        29.97S HX  92
SUMTER         SUNNY     83  74  74 W8        29.95F HX  90
FLORENCE       SUNNY     83  77  82 W7        29.97R HX  92
MYRTLE BEACH   SUNNY     82  79  89 W7        29.98R HX  93
N MYRTLE BEACH SUNNY     83  79  88 VRB6      29.96S HX  94

$$

GAZ063-065-086>088-099>101-113>116-118-119-134>141-150-181400-
...SOUTHEAST GEORGIA...

CITY           SKY/WX    TMP DP  RH WIND       PRES   REMARKS
SAVANNAH ARPT  MOSUNNY   84  75  74 NW8       30.00S HX  92
HUNTER AAF     SUNNY     83  76  77 W6        29.98R HX  91
FORT STEWART   SUNNY     83  74  73 W8        29.99R HX  90
STATESBORO     SUNNY     83  71  67 NW7       30.01R
SYLVANIA       SUNNY     83  78  84 NW6       30.01S HX  92
CLAXTON        FAIR      84  76  77 W5        30.01R HX  93

...CSRA...CENTRAL AND FAR SOUTHEAST GEORGIA...

CITY           SKY/WX    TMP DP  RH WIND       PRES   REMARKS
THOMSON        SUNNY     81  74  77 NW3       30.06S
AUGUSTA-BUSH   SUNNY     86  74  67 NW9       29.99S HX  94
AUGUSTA-DANIEL SUNNY     85  71  63 W7        30.01S HX  90
SWAINSBORO     FAIR      81  75  83 NW6       30.02S
VIDALIA        SUNNY     82  75  78 NW5       30.02S
EASTMAN        FAIR      83  68  60 CALM      30.04F
HAZLEHURST     FAIR      84  68  58 CALM      30.01S
ALMA           SUNNY     85  74  69 NW8       30.02R HX  92
WAYCROSS       SUNNY     83  76  80 N3        30.02S HX  90
JESUP          FAIR      84  73  70 NW5       30.02R HX  91
BAXLEY         FAIR      81  75  83 N5        30.02R
BRUNSWICK      MOSUNNY   81  73  78 NW6       30.02R
SAINT SIMONS   PTSUNNY   83  78  85 W6        30.01R HX  93

$$

SCZ027-028-034-036>038-045-046-048>050-GAZ119-141-181400-
...LAKE AND SUPPLEMENTAL COASTAL OBSERVATIONS...

STATION/POSITION TIME  TEMP    WIND        PRES    WAVE   SWELL
                       AIR SEA DIR/SP/G            HT/PER HT/PER/DIR
                 (UTC) (F)     (DEG/KT/KT) (MB)    (FT/S) (FT/S/D)
WINYAH BAY       1145   81     250/  5     1015.0
LAKE MURRAY      1220   82     260/  9/ 12 1014.2
ACE BASIN NERRS  1145   81     240/  1     1015.0
FORT PULASKI     1242   83 86  300/ 12/ 13 1016.0R
SAPELO ISLAND    1200   81     280/  1     1016.0

$$

ANZ835-935-AMZ111-154-330-350-352-354-370-450-454-472-181400-
...C-MAN AND BUOY OBSERVATIONS...

STATION/POSITION TIME  TEMP    WIND        PRES    WAVE   SWELL
                       AIR SEA DIR/SP/G            HT/PER HT/PER/DIR
                 (UTC) (F)     (DEG/KT/KT) (MB)    (FT/S) (FT/S/D)
BUOY 41004       1250   84 85  230/ 12/ 14 1014.9R   3/ 5   2/130/ 7
BUOY 41008       1250   83 85  260/  6/  8 1015.9R   2/ 4   2/110/ 9
FOLLY BEACH CMAN 1200   83     230/  5/  7 1015.8R
CAPERS NEARSHORE 1208   84 85  250/ 10/ 12 1014.7R
FRIPP NEARSHORE  1208   83     270/ 12/ 16 1015.0R


STATION/POSITION TIME  TEMP    WIND        PRES    WAVE   SWELL
                       AIR SEA DIR/SP/G            HT/PER HT/PER/DIR
                 (UTC) (F)     (DEG/KT/KT) (MB)    (FT/S) (FT/S/D)
5E ST. MARYS GA  1230      83                N/A     1/ 9
FRYING PAN BUOY  1250   84 84  230/ 14/ 16 1014.6R   2/ 5
BUOY 41025       1250   83 86  210/ 14/ 16 1014.7F   2/ 8   2/ 70/ 8
CAPE LOOKOUT NC  1200   83     210/  8/  9 1014.3R
BUOY 41002       1250   83 84  220/ 14/ 16 1016.7R   2/ 6   2/ 80/ 8
BUOY 41010       1250   85 85  190/  8/ 10 1017.2R   2/ 8   2/120/ 8
ST AUGUSTINE FL  1300   81 81  190/  6/  7 1017.2R


$$



USA.gov is the U.S. government's official web portal to all federal, state and local government web resources and services.